• In Czech Republic
  • List of Countries
  • For 7 days
  • Water Temperature
  • Satellite Maps
  • Weather Map
  • Weather Widgets
  • user-avatar
    Login

    Hourly Weather Benito Juarez

    Today, 18 January, Thursday

    Time Temperature Precipitation Wind Pressure Humidity
    00:00 +4°C° 0 mm 3 mps 567 mmHg 81%
    01:00 +5°C° 0 mm 2 mps 567 mmHg 82%
    02:00 +5°C° 0 mm 2 mps 566 mmHg 83%
    03:00 +4°C° 0 mm 2 mps 566 mmHg 84%
    04:00 +4°C° 0 mm 2 mps 566 mmHg 85%
    05:00 +3°C° 0 mm 2 mps 566 mmHg 86%
    06:00 +4°C° 0 mm 2 mps 566 mmHg 80%
    07:00 +5°C° 0 mm 2 mps 567 mmHg 74%
    08:00 +6°C° 0 mm 2 mps 567 mmHg 69%
    09:00 +9°C° 0 mm 2 mps 568 mmHg 60%
    10:00 +12°C° 0 mm 2 mps 569 mmHg 51%
    11:00 +14°C° 0 mm 2 mps 569 mmHg 42%
    12:00 +14°C° 0 mm 2 mps 569 mmHg 40%
    13:00 +14°C° 0 mm 3 mps 569 mmHg 39%
    14:00 +16°C° 0 mm 3 mps 569 mmHg 38%
    15:00 +13°C° 0 mm 3 mps 568 mmHg 44%
    16:00 +12°C° 0 mm 3 mps 567 mmHg 50%
    17:00 +11°C° 0 mm 3 mps 567 mmHg 56%
    18:00 +10°C° 0 mm 2 mps 567 mmHg 62%
    19:00 +9°C° 0 mm 2 mps 566 mmHg 69%
    20:00 +8°C° 0 mm 1 mps 566 mmHg 75%
    21:00 +8°C° 0 mm 1 mps 566 mmHg 76%
    22:00 +8°C° 0 mm 1 mps 566 mmHg 77%
    23:00 +7°C° 0 mm 1 mps 566 mmHg 79%

    Tomorrow, 19 January, Friday

    Time Temperature Precipitation Wind Pressure Humidity
    00:00 +7°C° 0 mm 1 mps 565 mmHg 77%
    01:00 +7°C° 0 mm 1 mps 565 mmHg 76%
    02:00 +6°C° 0 mm 1 mps 564 mmHg 74%
    03:00 +6°C° 0 mm 1 mps 564 mmHg 72%
    04:00 +6°C° 0 mm 1 mps 564 mmHg 70%
    05:00 +6°C° 0 mm 1 mps 564 mmHg 68%
    06:00 +7°C° 0 mm 1 mps 565 mmHg 63%
    07:00 +9°C° 0 mm 1 mps 566 mmHg 57%
    08:00 +10°C° 0 mm 1 mps 567 mmHg 51%
    09:00 +12°C° 0 mm 2 mps 567 mmHg 46%
    10:00 +14°C° 0 mm 2 mps 568 mmHg 42%
    11:00 +16°C° 0 mm 3 mps 569 mmHg 37%
    12:00 +16°C° 0 mm 3 mps 568 mmHg 37%
    13:00 +15°C° 0 mm 4 mps 567 mmHg 38%
    14:00 +17°C° 0 mm 4 mps 566 mmHg 38%
    15:00 +14°C° 0 mm 3 mps 566 mmHg 43%
    16:00 +13°C° 0 mm 3 mps 566 mmHg 48%
    17:00 +13°C° 0 mm 2 mps 565 mmHg 52%
    18:00 +12°C° 0 mm 2 mps 565 mmHg 56%
    19:00 +10°C° 0 mm 2 mps 565 mmHg 60%
    20:00 +10°C° 0 mm 1 mps 565 mmHg 64%
    21:00 +10°C° 0 mm 1 mps 565 mmHg 65%
    22:00 +10°C° 0 mm 1 mps 565 mmHg 65%
    23:00 +9°C° 0 mm 1 mps 565 mmHg 66%

    Day after tomorrow, 20 January, Saturday

    Time Temperature Precipitation Wind Pressure Humidity
    00:00 +9°C° 0 mm 1 mps 564 mmHg 67%
    01:00 +9°C° 0 mm 1 mps 564 mmHg 68%
    02:00 +8°C° 0 mm 1 mps 563 mmHg 69%
    03:00 +8°C° 0 mm 1 mps 563 mmHg 70%
    04:00 +7°C° 0 mm 1 mps 563 mmHg 71%
    05:00 +7°C° 0 mm 1 mps 563 mmHg 72%
    06:00 +9°C° 0 mm 1 mps 564 mmHg 67%
    07:00 +10°C° 0 mm 1 mps 565 mmHg 61%
    08:00 +12°C° 0 mm 1 mps 566 mmHg 55%
    09:00 +13°C° 0 mm 1 mps 567 mmHg 49%
    10:00 +15°C° 0 mm 2 mps 567 mmHg 43%
    11:00 +16°C° 0 mm 2 mps 568 mmHg 37%
    12:00 +17°C° 0 mm 2 mps 567 mmHg 36%
    13:00 +17°C° 0 mm 3 mps 567 mmHg 34%
    14:00 +18°C° 0 mm 3 mps 567 mmHg 33%
    15:00 +17°C° 0 mm 3 mps 566 mmHg 38%
    16:00 +16°C° 0 mm 3 mps 566 mmHg 42%
    17:00 +15°C° 0 mm 2 mps 565 mmHg 47%
    18:00 +13°C° 0 mm 2 mps 565 mmHg 51%
    19:00 +12°C° 0 mm 2 mps 565 mmHg 54%
    20:00 +11°C° 0 mm 1 mps 565 mmHg 58%
    21:00 +10°C° 0 mm 1 mps 565 mmHg 58%
    22:00 +10°C° 0 mm 1 mps 565 mmHg 58%
    23:00 +10°C° 0 mm 1 mps 564 mmHg 58%

    21 January, Sunday

    Time Temperature Precipitation Wind Pressure Humidity
    00:00 +9°C° 0 mm 1 mps 564 mmHg 60%
    01:00 +9°C° 0 mm 1 mps 563 mmHg 62%
    02:00 +9°C° 0 mm 1 mps 563 mmHg 64%
    03:00 +8°C° 0 mm 1 mps 563 mmHg 68%
    04:00 +8°C° 0 mm 1 mps 563 mmHg 71%
    05:00 +8°C° 0 mm 1 mps 562 mmHg 74%
    06:00 +9°C° 0 mm 1 mps 564 mmHg 68%
    07:00 +11°C° 0 mm 1 mps 565 mmHg 62%
    08:00 +13°C° 0 mm 1 mps 566 mmHg 55%
    09:00 +14°C° 0 mm 2 mps 567 mmHg 46%
    10:00 +16°C° 0 mm 2 mps 567 mmHg 38%
    11:00 +18°C° 0 mm 3 mps 568 mmHg 29%
    12:00 +19°C° 0 mm 3 mps 567 mmHg 28%
    13:00 +20°C° 0 mm 3 mps 567 mmHg 26%
    14:00 +20°C° 0 mm 4 mps 566 mmHg 25%
    15:00 +19°C° 0 mm 3 mps 566 mmHg 31%
    16:00 +17°C° 0 mm 3 mps 565 mmHg 36%
    17:00 +16°C° 0 mm 3 mps 564 mmHg 41%
    18:00 +15°C° 0 mm 2 mps 564 mmHg 44%
    19:00 +13°C° 0 mm 1 mps 564 mmHg 47%
    20:00 +12°C° 0 mm 1 mps 564 mmHg 50%
    21:00 +11°C° 0 mm 1 mps 564 mmHg 50%
    22:00 +11°C° 0 mm 1 mps 564 mmHg 50%
    23:00 +10°C° 0 mm 1 mps 564 mmHg 50%

    22 January, Monday

    Time Temperature Precipitation Wind Pressure Humidity
    00:00 +10°C° 0 mm 1 mps 563 mmHg 51%
    01:00 +10°C° 0 mm 1 mps 563 mmHg 53%
    02:00 +9°C° 0 mm 1 mps 563 mmHg 54%
    03:00 +9°C° 0 mm 1 mps 563 mmHg 56%
    04:00 +9°C° 0 mm 1 mps 563 mmHg 58%
    05:00 +8°C° 0 mm 1 mps 563 mmHg 60%
    06:00 +10°C° 0 mm 1 mps 564 mmHg 55%
    07:00 +12°C° 0 mm 1 mps 565 mmHg 49%
    08:00 +13°C° 0 mm 1 mps 567 mmHg 44%
    09:00 +15°C° 0 mm 1 mps 567 mmHg 40%
    10:00 +17°C° 0 mm 2 mps 568 mmHg 36%
    11:00 +18°C° 0 mm 2 mps 568 mmHg 31%
    12:00 +19°C° 0 mm 2 mps 568 mmHg 33%
    13:00 +19°C° 0 mm 3 mps 567 mmHg 35%
    14:00 +19°C° 0 mm 3 mps 567 mmHg 36%
    15:00 +18°C° 0 mm 3 mps 566 mmHg 44%
    16:00 +15°C° 0 mm 4 mps 566 mmHg 51%
    17:00 +14°C° 0 mm 4 mps 566 mmHg 59%
    18:00 +13°C° 0 mm 3 mps 566 mmHg 66%
    19:00 +12°C° 0 mm 3 mps 566 mmHg 74%
    20:00 +11°C° 0 mm 3 mps 566 mmHg 82%
    21:00 +10°C° 0 mm 3 mps 566 mmHg 82%
    22:00 +10°C° 0 mm 3 mps 566 mmHg 83%
    23:00 +10°C° 0 mm 3 mps 566 mmHg 83%

    23 January, Tuesday

    Time Temperature Precipitation Wind Pressure Humidity
    00:00 +10°C° 0 mm 3 mps 565 mmHg 83%
    01:00 +9°C° 0 mm 2 mps 565 mmHg 84%
    02:00 +9°C° 0 mm 2 mps 564 mmHg 84%
    03:00 +9°C° 0 mm 2 mps 564 mmHg 85%
    04:00 +8°C° 0 mm 2 mps 564 mmHg 86%
    05:00 +8°C° 0 mm 2 mps 564 mmHg 88%
    06:00 +9°C° 0 mm 2 mps 565 mmHg 81%
    07:00 +10°C° 0 mm 2 mps 566 mmHg 74%
    08:00 +12°C° 0 mm 2 mps 567 mmHg 68%
    09:00 +14°C° 0 mm 2 mps 567 mmHg 61%
    10:00 +16°C° 0 mm 2 mps 568 mmHg 54%
    11:00 +17°C° 0 mm 3 mps 568 mmHg 46%
    12:00 +18°C° 0 mm 3 mps 568 mmHg 45%
    13:00 +19°C° 0 mm 4 mps 567 mmHg 43%
    14:00 +19°C° 0 mm 4 mps 567 mmHg 41%
    15:00 +18°C° 0 mm 4 mps 566 mmHg 45%
    16:00 +17°C° 0 mm 4 mps 566 mmHg 50%
    17:00 +15°C° 0 mm 4 mps 566 mmHg 54%
    18:00 +14°C° 0.1 mm 3 mps 566 mmHg 60%
    19:00 +14°C° 0.1 mm 2 mps 565 mmHg 66%
    20:00 +12°C° 0.1 mm 2 mps 565 mmHg 73%
    21:00 +12°C° 0 mm 2 mps 565 mmHg 74%
    22:00 +11°C° 0 mm 1 mps 565 mmHg 75%
    23:00 +11°C° 0 mm 1 mps 565 mmHg 76%
    Show more